owner,sensor,date,latitude,longitude,vertical_datum,sea_water_temperature,qcFlag 
COMPS,ioos:station:USF.COMPS:EGK:1,2013-04-09T10:54:00Z,27.6010,-82.7510,-1.0,6.48,2 
COMPS,ioos:station:USF.COMPS:EGK:1,2013-04-09T11:00:00Z,27.6010,-82.7510,-1.0,5.92,2 
COMPS,ioos:station:USF.COMPS:EGK:1,2013-04-09T11:06:00Z,27.6010,-82.7510,-1.0,4.51,2 
COMPS,ioos:station:USF.COMPS:EGK:1,2013-04-09T11:12:00Z,27.6010,-82.7510,-1.0,3.88,2 
COMPS,ioos:station:USF.COMPS:EGK:1,2013-04-09T11:18:00Z,27.6010,-82.7510,-1.0,4.34,2 
COMPS,ioos:station:USF.COMPS:EGK:1,2013-04-09T11:24:00Z,27.6010,-82.7510,-1.0,4.26,2 
COMPS,ioos:station:USF.COMPS:EGK:1,2013-04-09T11:30:00Z,27.6010,-82.7510,-1.0,4.64,2 
COMPS,ioos:station:USF.COMPS:EGK:1,2013-04-09T11:36:00Z,27.6010,-82.7510,-1.0,4.61,2 
COMPS,ioos:station:USF.COMPS:EGK:1,2013-04-09T11:42:00Z,27.6010,-82.7510,-1.0,4.53,2 
COMPS,ioos:station:USF.COMPS:EGK:1,2013-04-09T11:48:00Z,27.6010,-82.7510,-1.0,5.34,2 
COMPS,ioos:station:USF.COMPS:EGK:1,2013-04-09T11:54:00Z,27.6010,-82.7510,-1.0,5.74,2 
COMPS,ioos:station:USF.COMPS:EGK:1,2013-04-09T12:00:00Z,27.6010,-82.7510,-1.0,5.46,2 
COMPS,ioos:station:USF.COMPS:EGK:1,2013-04-09T12:06:00Z,27.6010,-82.7510,-1.0,5.93,2 
COMPS,ioos:station:USF.COMPS:EGK:1,2013-04-09T12:12:00Z,27.6010,-82.7510,-1.0,5.21,2 
COMPS,ioos:station:USF.COMPS:EGK:1,2013-04-09T12:18:00Z,27.6010,-82.7510,-1.0,5.62,2 
COMPS,ioos:station:USF.COMPS:EGK:1,2013-04-09T12:24:00Z,27.6010,-82.7510,-1.0,6.35,2 
COMPS,ioos:station:USF.COMPS:EGK:1,2013-04-09T12:30:00Z,27.6010,-82.7510,-1.0,7.8,2 
COMPS,ioos:station:USF.COMPS:EGK:1,2013-04-09T12:36:00Z,27.6010,-82.7510,-1.0,7.1,2 
COMPS,ioos:station:USF.COMPS:EGK:1,2013-04-09T12:42:00Z,27.6010,-82.7510,-1.0,7.41,2 
COMPS,ioos:station:USF.COMPS:EGK:1,2013-04-09T12:48:00Z,27.6010,-82.7510,-1.0,6.83,2 
COMPS,ioos:station:USF.COMPS:EGK:1,2013-04-09T12:54:00Z,27.6010,-82.7510,-1.0,6.76,2 
COMPS,ioos:station:USF.COMPS:EGK:1,2013-04-09T13:00:00Z,27.6010,-82.7510,-1.0,6.9,2 
COMPS,ioos:station:USF.COMPS:EGK:1,2013-04-09T13:06:00Z,27.6010,-82.7510,-1.0,6.42,2 
COMPS,ioos:station:USF.COMPS:EGK:1,2013-04-09T13:12:00Z,27.6010,-82.7510,-1.0,5.78,2 
COMPS,ioos:station:USF.COMPS:EGK:1,2013-04-09T13:18:00Z,27.6010,-82.7510,-1.0,5.87,2 
COMPS,ioos:station:USF.COMPS:EGK:1,2013-04-09T13:24:00Z,27.6010,-82.7510,-1.0,6.04,2 
COMPS,ioos:station:USF.COMPS:EGK:1,2013-04-09T13:30:00Z,27.6010,-82.7510,-1.0,6.25,2 
COMPS,ioos:station:USF.COMPS:EGK:1,2013-04-09T13:36:00Z,27.6010,-82.7510,-1.0,5.63,2 
COMPS,ioos:station:USF.COMPS:EGK:1,2013-04-09T13:42:00Z,27.6010,-82.7510,-1.0,5.41,2 
COMPS,ioos:station:USF.COMPS:EGK:1,2013-04-09T13:48:00Z,27.6010,-82.7510,-1.0,5.45,2 
COMPS,ioos:station:USF.COMPS:EGK:1,2013-04-09T13:54:00Z,27.6010,-82.7510,-1.0,4.92,2 
COMPS,ioos:station:USF.COMPS:EGK:1,2013-04-09T14:00:00Z,27.6010,-82.7510,-1.0,4.21,2 
COMPS,ioos:station:USF.COMPS:EGK:1,2013-04-09T14:06:00Z,27.6010,-82.7510,-1.0,1.74,2 
COMPS,ioos:station:USF.COMPS:EGK:1,2013-04-09T14:12:00Z,27.6010,-82.7510,-1.0,2.42,2 
COMPS,ioos:station:USF.COMPS:EGK:1,2013-04-09T14:18:00Z,27.6010,-82.7510,-1.0,3.94,2 
COMPS,ioos:station:USF.COMPS:EGK:1,2013-04-09T14:24:00Z,27.6010,-82.7510,-1.0,3.65,2 
COMPS,ioos:station:USF.COMPS:EGK:1,2013-04-09T14:30:00Z,27.6010,-82.7510,-1.0,4.35,2 
COMPS,ioos:station:USF.COMPS:EGK:1,2013-04-09T14:36:00Z,27.6010,-82.7510,-1.0,4.49,2 
COMPS,ioos:station:USF.COMPS:EGK:1,2013-04-09T14:42:00Z,27.6010,-82.7510,-1.0,3.19,2 
COMPS,ioos:station:USF.COMPS:EGK:1,2013-04-09T14:48:00Z,27.6010,-82.7510,-1.0,1.57,2 
COMPS,ioos:station:USF.COMPS:EGK:1,2013-04-09T14:54:00Z,27.6010,-82.7510,-1.0,4.93,2 
COMPS,ioos:station:USF.COMPS:EGK:1,2013-04-09T15:00:00Z,27.6010,-82.7510,-1.0,4.47,2 
COMPS,ioos:station:USF.COMPS:EGK:1,2013-04-09T15:06:00Z,27.6010,-82.7510,-1.0,4.59,2 
COMPS,ioos:station:USF.COMPS:EGK:1,2013-04-09T15:12:00Z,27.6010,-82.7510,-1.0,3.82,2 
COMPS,ioos:station:USF.COMPS:EGK:1,2013-04-09T15:18:00Z,27.6010,-82.7510,-1.0,2.9,2 
COMPS,ioos:station:USF.COMPS:EGK:1,2013-04-09T15:24:00Z,27.6010,-82.7510,-1.0,2.32,2 
COMPS,ioos:station:USF.COMPS:EGK:1,2013-04-09T15:30:00Z,27.6010,-82.7510,-1.0,2.72,2 
COMPS,ioos:station:USF.COMPS:EGK:1,2013-04-09T15:36:00Z,27.6010,-82.7510,-1.0,3.64,2 
COMPS,ioos:station:USF.COMPS:EGK:1,2013-04-09T15:42:00Z,27.6010,-82.7510,-1.0,3.92,2 
COMPS,ioos:station:USF.COMPS:EGK:1,2013-04-09T15:48:00Z,27.6010,-82.7510,-1.0,3.78,2 
COMPS,ioos:station:USF.COMPS:EGK:1,2013-04-09T15:54:00Z,27.6010,-82.7510,-1.0,3.72,2 
COMPS,ioos:station:USF.COMPS:EGK:1,2013-04-09T16:00:00Z,27.6010,-82.7510,-1.0,3.33,2 
COMPS,ioos:station:USF.COMPS:EGK:1,2013-04-09T16:06:00Z,27.6010,-82.7510,-1.0,4.22,2 
COMPS,ioos:station:USF.COMPS:EGK:1,2013-04-09T16:12:00Z,27.6010,-82.7510,-1.0,4.55,2 
COMPS,ioos:station:USF.COMPS:EGK:1,2013-04-09T16:18:00Z,27.6010,-82.7510,-1.0,4.29,2 
COMPS,ioos:station:USF.COMPS:EGK:1,2013-04-09T16:24:00Z,27.6010,-82.7510,-1.0,4.29,2 
COMPS,ioos:station:USF.COMPS:EGK:1,2013-04-09T16:30:00Z,27.6010,-82.7510,-1.0,5.07,2 
COMPS,ioos:station:USF.COMPS:EGK:1,2013-04-09T16:36:00Z,27.6010,-82.7510,-1.0,5.28,2 
COMPS,ioos:station:USF.COMPS:EGK:1,2013-04-09T16:42:00Z,27.6010,-82.7510,-1.0,5.36,2 
COMPS,ioos:station:USF.COMPS:EGK:1,2013-04-09T16:48:00Z,27.6010,-82.7510,-1.0,6.86,2 
COMPS,ioos:station:USF.COMPS:EGK:1,2013-04-09T16:54:00Z,27.6010,-82.7510,-1.0,4.75,2 
COMPS,ioos:station:USF.COMPS:EGK:1,2013-04-09T17:00:00Z,27.6010,-82.7510,-1.0,2.05,2 
COMPS,ioos:station:USF.COMPS:EGK:1,2013-04-09T17:06:00Z,27.6010,-82.7510,-1.0,0.78,2 
COMPS,ioos:station:USF.COMPS:EGK:1,2013-04-09T17:12:00Z,27.6010,-82.7510,-1.0,2.23,2 
COMPS,ioos:station:USF.COMPS:EGK:1,2013-04-09T17:18:00Z,27.6010,-82.7510,-1.0,4.02,2 
COMPS,ioos:station:USF.COMPS:EGK:1,2013-04-09T17:24:00Z,27.6010,-82.7510,-1.0,5.78,2 
COMPS,ioos:station:USF.COMPS:EGK:1,2013-04-09T17:30:00Z,27.6010,-82.7510,-1.0,5.45,2 
COMPS,ioos:station:USF.COMPS:EGK:1,2013-04-09T17:36:00Z,27.6010,-82.7510,-1.0,4.49,2 
COMPS,ioos:station:USF.COMPS:EGK:1,2013-04-09T17:42:00Z,27.6010,-82.7510,-1.0,4.55,2 
COMPS,ioos:station:USF.COMPS:EGK:1,2013-04-09T17:48:00Z,27.6010,-82.7510,-1.0,3.48,2 
COMPS,ioos:station:USF.COMPS:EGK:1,2013-04-09T17:54:00Z,27.6010,-82.7510,-1.0,2.61,2 
COMPS,ioos:station:USF.COMPS:EGK:1,2013-04-09T18:00:00Z,27.6010,-82.7510,-1.0,4.42,2 
COMPS,ioos:station:USF.COMPS:EGK:1,2013-04-09T18:06:00Z,27.6010,-82.7510,-1.0,3.98,2 
COMPS,ioos:station:USF.COMPS:EGK:1,2013-04-09T18:12:00Z,27.6010,-82.7510,-1.0,4.44,2 
COMPS,ioos:station:USF.COMPS:EGK:1,2013-04-09T18:18:00Z,27.6010,-82.7510,-1.0,4.58,2 
COMPS,ioos:station:USF.COMPS:EGK:1,2013-04-09T18:24:00Z,27.6010,-82.7510,-1.0,4.56,2 
COMPS,ioos:station:USF.COMPS:EGK:1,2013-04-09T18:30:00Z,27.6010,-82.7510,-1.0,5.2,2 
COMPS,ioos:station:USF.COMPS:EGK:1,2013-04-09T18:36:00Z,27.6010,-82.7510,-1.0,5.82,2 
COMPS,ioos:station:USF.COMPS:EGK:1,2013-04-09T18:42:00Z,27.6010,-82.7510,-1.0,5.85,2 
COMPS,ioos:station:USF.COMPS:EGK:1,2013-04-09T18:48:00Z,27.6010,-82.7510,-1.0,5.4,2 
COMPS,ioos:station:USF.COMPS:EGK:1,2013-04-09T18:54:00Z,27.6010,-82.7510,-1.0,5.33,2 
COMPS,ioos:station:USF.COMPS:EGK:1,2013-04-09T19:00:00Z,27.6010,-82.7510,-1.0,5.44,2 
COMPS,ioos:station:USF.COMPS:EGK:1,2013-04-09T19:06:00Z,27.6010,-82.7510,-1.0,4.97,2 
COMPS,ioos:station:USF.COMPS:EGK:1,2013-04-09T19:12:00Z,27.6010,-82.7510,-1.0,4.65,2 
COMPS,ioos:station:USF.COMPS:EGK:1,2013-04-09T19:18:00Z,27.6010,-82.7510,-1.0,5.21,2 
COMPS,ioos:station:USF.COMPS:EGK:1,2013-04-09T19:24:00Z,27.6010,-82.7510,-1.0,4.93,2 
COMPS,ioos:station:USF.COMPS:EGK:1,2013-04-09T19:30:00Z,27.6010,-82.7510,-1.0,5.48,2 
COMPS,ioos:station:USF.COMPS:EGK:1,2013-04-09T19:36:00Z,27.6010,-82.7510,-1.0,5.85,2 
COMPS,ioos:station:USF.COMPS:EGK:1,2013-04-09T19:42:00Z,27.6010,-82.7510,-1.0,5.81,2 
COMPS,ioos:station:USF.COMPS:EGK:1,2013-04-09T19:48:00Z,27.6010,-82.7510,-1.0,5.46,2 
COMPS,ioos:station:USF.COMPS:EGK:1,2013-04-09T19:54:00Z,27.6010,-82.7510,-1.0,5.5,2 
COMPS,ioos:station:USF.COMPS:EGK:1,2013-04-09T20:00:00Z,27.6010,-82.7510,-1.0,5.77,2 
COMPS,ioos:station:USF.COMPS:EGK:1,2013-04-09T20:06:00Z,27.6010,-82.7510,-1.0,5.78,2 
COMPS,ioos:station:USF.COMPS:EGK:1,2013-04-09T20:12:00Z,27.6010,-82.7510,-1.0,5.89,2 
COMPS,ioos:station:USF.COMPS:EGK:1,2013-04-09T20:18:00Z,27.6010,-82.7510,-1.0,6.4,2 
COMPS,ioos:station:USF.COMPS:EGK:1,2013-04-09T20:24:00Z,27.6010,-82.7510,-1.0,6.26,2 
COMPS,ioos:station:USF.COMPS:EGK:1,2013-04-09T20:30:00Z,27.6010,-82.7510,-1.0,6.55,2 
COMPS,ioos:station:USF.COMPS:EGK:1,2013-04-09T20:36:00Z,27.6010,-82.7510,-1.0,6.57,2 
COMPS,ioos:station:USF.COMPS:EGK:1,2013-04-09T20:42:00Z,27.6010,-82.7510,-1.0,6.31,2 
COMPS,ioos:station:USF.COMPS:EGK:1,2013-04-09T20:48:00Z,27.6010,-82.7510,-1.0,6.28,2 
COMPS,ioos:station:USF.COMPS:EGK:1,2013-04-09T20:54:00Z,27.6010,-82.7510,-1.0,6.23,2 
COMPS,ioos:station:USF.COMPS:EGK:1,2013-04-09T21:00:00Z,27.6010,-82.7510,-1.0,3.58,2 
COMPS,ioos:station:USF.COMPS:EGK:1,2013-04-09T21:06:00Z,27.6010,-82.7510,-1.0,3.07,2 
COMPS,ioos:station:USF.COMPS:EGK:1,2013-04-09T21:12:00Z,27.6010,-82.7510,-1.0,4.28,2 
COMPS,ioos:station:USF.COMPS:EGK:1,2013-04-09T21:18:00Z,27.6010,-82.7510,-1.0,6.52,2 
COMPS,ioos:station:USF.COMPS:EGK:1,2013-04-09T21:24:00Z,27.6010,-82.7510,-1.0,7.12,2 
COMPS,ioos:station:USF.COMPS:EGK:1,2013-04-09T21:30:00Z,27.6010,-82.7510,-1.0,6.34,2 
COMPS,ioos:station:USF.COMPS:EGK:1,2013-04-09T21:36:00Z,27.6010,-82.7510,-1.0,6.32,2 
COMPS,ioos:station:USF.COMPS:EGK:1,2013-04-09T21:42:00Z,27.6010,-82.7510,-1.0,6.1,2 
COMPS,ioos:station:USF.COMPS:EGK:1,2013-04-09T21:48:00Z,27.6010,-82.7510,-1.0,5.71,2 
COMPS,ioos:station:USF.COMPS:EGK:1,2013-04-09T21:54:00Z,27.6010,-82.7510,-1.0,4.86,2 
COMPS,ioos:station:USF.COMPS:EGK:1,2013-04-09T22:00:00Z,27.6010,-82.7510,-1.0,4.71,2 
COMPS,ioos:station:USF.COMPS:EGK:1,2013-04-09T22:06:00Z,27.6010,-82.7510,-1.0,4.36,2 
COMPS,ioos:station:USF.COMPS:EGK:1,2013-04-09T22:12:00Z,27.6010,-82.7510,-1.0,3.58,2 
COMPS,ioos:station:USF.COMPS:EGK:1,2013-04-09T22:18:00Z,27.6010,-82.7510,-1.0,1.99,2 
COMPS,ioos:station:USF.COMPS:EGK:1,2013-04-09T22:24:00Z,27.6010,-82.7510,-1.0,1.62,2 
COMPS,ioos:station:USF.COMPS:EGK:1,2013-04-09T22:30:00Z,27.6010,-82.7510,-1.0,1.74,2 
COMPS,ioos:station:USF.COMPS:EGK:1,2013-04-09T22:36:00Z,27.6010,-82.7510,-1.0,1.59,2 
COMPS,ioos:station:USF.COMPS:EGK:1,2013-04-09T22:42:00Z,27.6010,-82.7510,-1.0,1.72,2 
COMPS,ioos:station:USF.COMPS:EGK:1,2013-04-09T22:48:00Z,27.6010,-82.7510,-1.0,1.04,2 
COMPS,ioos:station:USF.COMPS:EGK:1,2013-04-09T22:54:00Z,27.6010,-82.7510,-1.0,1.02,2 
COMPS,ioos:station:USF.COMPS:EGK:1,2013-04-09T23:00:00Z,27.6010,-82.7510,-1.0,1.14,2 
COMPS,ioos:station:USF.COMPS:EGK:1,2013-04-09T23:06:00Z,27.6010,-82.7510,-1.0,1.49,2 
COMPS,ioos:station:USF.COMPS:EGK:1,2013-04-09T23:12:00Z,27.6010,-82.7510,-1.0,1.39,2 
COMPS,ioos:station:USF.COMPS:EGK:1,2013-04-09T23:18:00Z,27.6010,-82.7510,-1.0,1.54,2 
COMPS,ioos:station:USF.COMPS:EGK:1,2013-04-09T23:24:00Z,27.6010,-82.7510,-1.0,1.54,2 
COMPS,ioos:station:USF.COMPS:EGK:1,2013-04-09T23:30:00Z,27.6010,-82.7510,-1.0,1.45,2 
COMPS,ioos:station:USF.COMPS:EGK:1,2013-04-09T23:36:00Z,27.6010,-82.7510,-1.0,1.48,2 
COMPS,ioos:station:USF.COMPS:EGK:1,2013-04-09T23:42:00Z,27.6010,-82.7510,-1.0,1.11,2 
COMPS,ioos:station:USF.COMPS:EGK:1,2013-04-09T23:48:00Z,27.6010,-82.7510,-1.0,1.3,2 
COMPS,ioos:station:USF.COMPS:EGK:1,2013-04-09T23:54:00Z,27.6010,-82.7510,-1.0,1.3,2 
COMPS,ioos:station:USF.COMPS:EGK:1,2013-04-10T00:00:00Z,27.6010,-82.7510,-1.0,1.4,2 
COMPS,ioos:station:USF.COMPS:EGK:1,2013-04-10T00:06:00Z,27.6010,-82.7510,-1.0,1.73,2 
COMPS,ioos:station:USF.COMPS:EGK:1,2013-04-10T00:12:00Z,27.6010,-82.7510,-1.0,2.0,2 
COMPS,ioos:station:USF.COMPS:EGK:1,2013-04-10T00:18:00Z,27.6010,-82.7510,-1.0,1.86,2 
COMPS,ioos:station:USF.COMPS:EGK:1,2013-04-10T00:24:00Z,27.6010,-82.7510,-1.0,2.29,2 
COMPS,ioos:station:USF.COMPS:EGK:1,2013-04-10T00:30:00Z,27.6010,-82.7510,-1.0,1.12,2 
COMPS,ioos:station:USF.COMPS:EGK:1,2013-04-10T00:36:00Z,27.6010,-82.7510,-1.0,0.11,2 
COMPS,ioos:station:USF.COMPS:EGK:1,2013-04-10T00:42:00Z,27.6010,-82.7510,-1.0,1.12,2 
COMPS,ioos:station:USF.COMPS:EGK:1,2013-04-10T00:48:00Z,27.6010,-82.7510,-1.0,0.65,2 
COMPS,ioos:station:USF.COMPS:EGK:1,2013-04-10T00:54:00Z,27.6010,-82.7510,-1.0,0.74,2 
COMPS,ioos:station:USF.COMPS:EGK:1,2013-04-10T01:00:00Z,27.6010,-82.7510,-1.0,1.77,2 
COMPS,ioos:station:USF.COMPS:EGK:1,2013-04-10T01:06:00Z,27.6010,-82.7510,-1.0,2.14,2 
COMPS,ioos:station:USF.COMPS:EGK:1,2013-04-10T01:12:00Z,27.6010,-82.7510,-1.0,0.62,2 
COMPS,ioos:station:USF.COMPS:EGK:1,2013-04-10T01:18:00Z,27.6010,-82.7510,-1.0,1.01,2 
COMPS,ioos:station:USF.COMPS:EGK:1,2013-04-10T01:24:00Z,27.6010,-82.7510,-1.0,0.92,2 
COMPS,ioos:station:USF.COMPS:EGK:1,2013-04-10T01:30:00Z,27.6010,-82.7510,-1.0,1.21,2 
COMPS,ioos:station:USF.COMPS:EGK:1,2013-04-10T01:36:00Z,27.6010,-82.7510,-1.0,1.61,2 
COMPS,ioos:station:USF.COMPS:EGK:1,2013-04-10T01:42:00Z,27.6010,-82.7510,-1.0,1.24,2 
COMPS,ioos:station:USF.COMPS:EGK:1,2013-04-10T01:48:00Z,27.6010,-82.7510,-1.0,1.79,2 
COMPS,ioos:station:USF.COMPS:EGK:1,2013-04-10T01:54:00Z,27.6010,-82.7510,-1.0,1.4,2 
COMPS,ioos:station:USF.COMPS:EGK:1,2013-04-10T02:00:00Z,27.6010,-82.7510,-1.0,0.73,2 
COMPS,ioos:station:USF.COMPS:EGK:1,2013-04-10T02:06:00Z,27.6010,-82.7510,-1.0,0.5,2 
COMPS,ioos:station:USF.COMPS:EGK:1,2013-04-10T02:12:00Z,27.6010,-82.7510,-1.0,0.75,2 
COMPS,ioos:station:USF.COMPS:EGK:1,2013-04-10T02:18:00Z,27.6010,-82.7510,-1.0,0.69,2 
COMPS,ioos:station:USF.COMPS:EGK:1,2013-04-10T02:24:00Z,27.6010,-82.7510,-1.0,0.72,2 
COMPS,ioos:station:USF.COMPS:EGK:1,2013-04-10T02:30:00Z,27.6010,-82.7510,-1.0,0.77,2 
COMPS,ioos:station:USF.COMPS:EGK:1,2013-04-10T02:36:00Z,27.6010,-82.7510,-1.0,1.3,2 
COMPS,ioos:station:USF.COMPS:EGK:1,2013-04-10T02:42:00Z,27.6010,-82.7510,-1.0,1.09,2 
COMPS,ioos:station:USF.COMPS:EGK:1,2013-04-10T02:48:00Z,27.6010,-82.7510,-1.0,0.62,2 
COMPS,ioos:station:USF.COMPS:EGK:1,2013-04-10T02:54:00Z,27.6010,-82.7510,-1.0,0.83,2 
COMPS,ioos:station:USF.COMPS:EGK:1,2013-04-10T03:00:00Z,27.6010,-82.7510,-1.0,0.56,2 
COMPS,ioos:station:USF.COMPS:EGK:1,2013-04-10T03:06:00Z,27.6010,-82.7510,-1.0,0.62,2 
COMPS,ioos:station:USF.COMPS:EGK:1,2013-04-10T03:12:00Z,27.6010,-82.7510,-1.0,0.86,2 
COMPS,ioos:station:USF.COMPS:EGK:1,2013-04-10T03:18:00Z,27.6010,-82.7510,-1.0,1.11,2 
COMPS,ioos:station:USF.COMPS:EGK:1,2013-04-10T03:24:00Z,27.6010,-82.7510,-1.0,0.53,2 
COMPS,ioos:station:USF.COMPS:EGK:1,2013-04-10T03:30:00Z,27.6010,-82.7510,-1.0,0.32,2 
COMPS,ioos:station:USF.COMPS:EGK:1,2013-04-10T03:36:00Z,27.6010,-82.7510,-1.0,0.53,2 
COMPS,ioos:station:USF.COMPS:EGK:1,2013-04-10T03:42:00Z,27.6010,-82.7510,-1.0,0.72,2 
COMPS,ioos:station:USF.COMPS:EGK:1,2013-04-10T03:48:00Z,27.6010,-82.7510,-1.0,0.67,2 
COMPS,ioos:station:USF.COMPS:EGK:1,2013-04-10T03:54:00Z,27.6010,-82.7510,-1.0,0.41,2 
COMPS,ioos:station:USF.COMPS:EGK:1,2013-04-10T04:00:00Z,27.6010,-82.7510,-1.0,0.71,2 
COMPS,ioos:station:USF.COMPS:EGK:1,2013-04-10T04:06:00Z,27.6010,-82.7510,-1.0,0.97,2 
COMPS,ioos:station:USF.COMPS:EGK:1,2013-04-10T04:12:00Z,27.6010,-82.7510,-1.0,0.91,2 
COMPS,ioos:station:USF.COMPS:EGK:1,2013-04-10T04:18:00Z,27.6010,-82.7510,-1.0,1.26,2 
COMPS,ioos:station:USF.COMPS:EGK:1,2013-04-10T04:24:00Z,27.6010,-82.7510,-1.0,0.91,2 
COMPS,ioos:station:USF.COMPS:EGK:1,2013-04-10T04:30:00Z,27.6010,-82.7510,-1.0,1.03,2 
COMPS,ioos:station:USF.COMPS:EGK:1,2013-04-10T04:36:00Z,27.6010,-82.7510,-1.0,1.23,2 
COMPS,ioos:station:USF.COMPS:EGK:1,2013-04-10T04:42:00Z,27.6010,-82.7510,-1.0,1.13,2 
COMPS,ioos:station:USF.COMPS:EGK:1,2013-04-10T04:48:00Z,27.6010,-82.7510,-1.0,0.96,2 
COMPS,ioos:station:USF.COMPS:EGK:1,2013-04-10T04:54:00Z,27.6010,-82.7510,-1.0,1.86,2 
COMPS,ioos:station:USF.COMPS:EGK:1,2013-04-10T05:00:00Z,27.6010,-82.7510,-1.0,1.43,2 
COMPS,ioos:station:USF.COMPS:EGK:1,2013-04-10T05:06:00Z,27.6010,-82.7510,-1.0,1.04,2 
COMPS,ioos:station:USF.COMPS:EGK:1,2013-04-10T05:12:00Z,27.6010,-82.7510,-1.0,1.02,2 
COMPS,ioos:station:USF.COMPS:EGK:1,2013-04-10T05:18:00Z,27.6010,-82.7510,-1.0,1.2,2 
COMPS,ioos:station:USF.COMPS:EGK:1,2013-04-10T05:24:00Z,27.6010,-82.7510,-1.0,1.44,2 
COMPS,ioos:station:USF.COMPS:EGK:1,2013-04-10T05:30:00Z,27.6010,-82.7510,-1.0,1.06,2 
COMPS,ioos:station:USF.COMPS:EGK:1,2013-04-10T05:36:00Z,27.6010,-82.7510,-1.0,1.14,2 
COMPS,ioos:station:USF.COMPS:EGK:1,2013-04-10T05:42:00Z,27.6010,-82.7510,-1.0,1.35,2 
COMPS,ioos:station:USF.COMPS:EGK:1,2013-04-10T05:48:00Z,27.6010,-82.7510,-1.0,1.09,2 
COMPS,ioos:station:USF.COMPS:EGK:1,2013-04-10T05:54:00Z,27.6010,-82.7510,-1.0,0.93,2 
COMPS,ioos:station:USF.COMPS:EGK:1,2013-04-10T06:00:00Z,27.6010,-82.7510,-1.0,0.94,2 
COMPS,ioos:station:USF.COMPS:EGK:1,2013-04-10T06:06:00Z,27.6010,-82.7510,-1.0,0.61,2 
COMPS,ioos:station:USF.COMPS:EGK:1,2013-04-10T06:12:00Z,27.6010,-82.7510,-1.0,0.69,2 
COMPS,ioos:station:USF.COMPS:EGK:1,2013-04-10T06:18:00Z,27.6010,-82.7510,-1.0,0.62,2 
COMPS,ioos:station:USF.COMPS:EGK:1,2013-04-10T06:24:00Z,27.6010,-82.7510,-1.0,0.84,2 
COMPS,ioos:station:USF.COMPS:EGK:1,2013-04-10T06:30:00Z,27.6010,-82.7510,-1.0,0.75,2 
COMPS,ioos:station:USF.COMPS:EGK:1,2013-04-10T06:36:00Z,27.6010,-82.7510,-1.0,0.72,2 
COMPS,ioos:station:USF.COMPS:EGK:1,2013-04-10T06:42:00Z,27.6010,-82.7510,-1.0,0.88,2 
COMPS,ioos:station:USF.COMPS:EGK:1,2013-04-10T06:48:00Z,27.6010,-82.7510,-1.0,0.4,2 
COMPS,ioos:station:USF.COMPS:EGK:1,2013-04-10T06:54:00Z,27.6010,-82.7510,-1.0,0.29,2 
COMPS,ioos:station:USF.COMPS:EGK:1,2013-04-10T07:00:00Z,27.6010,-82.7510,-1.0,0.14,2 
COMPS,ioos:station:USF.COMPS:EGK:1,2013-04-10T07:06:00Z,27.6010,-82.7510,-1.0,0.39,2 
COMPS,ioos:station:USF.COMPS:EGK:1,2013-04-10T07:12:00Z,27.6010,-82.7510,-1.0,0.54,2 
COMPS,ioos:station:USF.COMPS:EGK:1,2013-04-10T07:18:00Z,27.6010,-82.7510,-1.0,0.54,2 
COMPS,ioos:station:USF.COMPS:EGK:1,2013-04-10T07:24:00Z,27.6010,-82.7510,-1.0,0.66,2 
COMPS,ioos:station:USF.COMPS:EGK:1,2013-04-10T07:30:00Z,27.6010,-82.7510,-1.0,0.57,2 
COMPS,ioos:station:USF.COMPS:EGK:1,2013-04-10T07:36:00Z,27.6010,-82.7510,-1.0,0.33,2 
COMPS,ioos:station:USF.COMPS:EGK:1,2013-04-10T07:42:00Z,27.6010,-82.7510,-1.0,0.29,2 
COMPS,ioos:station:USF.COMPS:EGK:1,2013-04-10T07:48:00Z,27.6010,-82.7510,-1.0,0.31,2 
COMPS,ioos:station:USF.COMPS:EGK:1,2013-04-10T07:54:00Z,27.6010,-82.7510,-1.0,0.52,2 
COMPS,ioos:station:USF.COMPS:EGK:1,2013-04-10T08:00:00Z,27.6010,-82.7510,-1.0,0.48,2 
COMPS,ioos:station:USF.COMPS:EGK:1,2013-04-10T08:06:00Z,27.6010,-82.7510,-1.0,0.24,2 
COMPS,ioos:station:USF.COMPS:EGK:1,2013-04-10T08:12:00Z,27.6010,-82.7510,-1.0,0.28,2 
COMPS,ioos:station:USF.COMPS:EGK:1,2013-04-10T08:18:00Z,27.6010,-82.7510,-1.0,0.48,2 
COMPS,ioos:station:USF.COMPS:EGK:1,2013-04-10T08:24:00Z,27.6010,-82.7510,-1.0,0.61,2 
COMPS,ioos:station:USF.COMPS:EGK:1,2013-04-10T08:30:00Z,27.6010,-82.7510,-1.0,0.69,2 
COMPS,ioos:station:USF.COMPS:EGK:1,2013-04-10T08:36:00Z,27.6010,-82.7510,-1.0,0.87,2 
COMPS,ioos:station:USF.COMPS:EGK:1,2013-04-10T08:42:00Z,27.6010,-82.7510,-1.0,0.43,2 
COMPS,ioos:station:USF.COMPS:EGK:1,2013-04-10T08:48:00Z,27.6010,-82.7510,-1.0,0.45,2 
COMPS,ioos:station:USF.COMPS:EGK:1,2013-04-10T08:54:00Z,27.6010,-82.7510,-1.0,0.27,2 
COMPS,ioos:station:USF.COMPS:EGK:1,2013-04-10T09:00:00Z,27.6010,-82.7510,-1.0,0.61,2 
COMPS,ioos:station:USF.COMPS:EGK:1,2013-04-10T09:06:00Z,27.6010,-82.7510,-1.0,0.2,2 
COMPS,ioos:station:USF.COMPS:EGK:1,2013-04-10T09:12:00Z,27.6010,-82.7510,-1.0,0.42,2 
COMPS,ioos:station:USF.COMPS:EGK:1,2013-04-10T09:18:00Z,27.6010,-82.7510,-1.0,0.57,2 
COMPS,ioos:station:USF.COMPS:EGK:1,2013-04-10T09:24:00Z,27.6010,-82.7510,-1.0,0.42,2 
COMPS,ioos:station:USF.COMPS:EGK:1,2013-04-10T09:30:00Z,27.6010,-82.7510,-1.0,0.44,2 
COMPS,ioos:station:USF.COMPS:EGK:1,2013-04-10T09:36:00Z,27.6010,-82.7510,-1.0,0.41,2 
COMPS,ioos:station:USF.COMPS:EGK:1,2013-04-10T09:42:00Z,27.6010,-82.7510,-1.0,0.33,2 
COMPS,ioos:station:USF.COMPS:EGK:1,2013-04-10T09:48:00Z,27.6010,-82.7510,-1.0,0.44,2 
COMPS,ioos:station:USF.COMPS:EGK:1,2013-04-10T09:54:00Z,27.6010,-82.7510,-1.0,0.39,2 
COMPS,ioos:station:USF.COMPS:EGK:1,2013-04-10T10:00:00Z,27.6010,-82.7510,-1.0,0.43,2 
COMPS,ioos:station:USF.COMPS:EGK:1,2013-04-10T10:06:00Z,27.6010,-82.7510,-1.0,0.45,2 
COMPS,ioos:station:USF.COMPS:EGK:1,2013-04-10T10:12:00Z,27.6010,-82.7510,-1.0,0.44,2 
COMPS,ioos:station:USF.COMPS:EGK:1,2013-04-10T10:18:00Z,27.6010,-82.7510,-1.0,0.62,2 
COMPS,ioos:station:USF.COMPS:EGK:1,2013-04-10T10:24:00Z,27.6010,-82.7510,-1.0,0.62,2 
COMPS,ioos:station:USF.COMPS:EGK:1,2013-04-10T10:30:00Z,27.6010,-82.7510,-1.0,0.45,2 
COMPS,ioos:station:USF.COMPS:EGK:1,2013-04-10T10:36:00Z,27.6010,-82.7510,-1.0,0.69,2 
COMPS,ioos:station:USF.COMPS:EGK:1,2013-04-10T10:42:00Z,27.6010,-82.7510,-1.0,0.87,2 
COMPS,ioos:station:USF.COMPS:EGK:1,2013-04-10T10:48:00Z,27.6010,-82.7510,-1.0,0.64,2 
COMPS,ioos:station:USF.COMPS:EGK:1,2013-04-10T10:54:00Z,27.6010,-82.7510,-1.0,0.59,2 
COMPS,ioos:station:USF.COMPS:EGK:1,2013-04-10T11:00:00Z,27.6010,-82.7510,-1.0,0.59,2 
COMPS,ioos:station:USF.COMPS:EGK:1,2013-04-10T11:06:00Z,27.6010,-82.7510,-1.0,0.85,2 
COMPS,ioos:station:USF.COMPS:EGK:1,2013-04-10T11:12:00Z,27.6010,-82.7510,-1.0,0.87,2 
COMPS,ioos:station:USF.COMPS:EGK:1,2013-04-10T11:18:00Z,27.6010,-82.7510,-1.0,0.96,2 
COMPS,ioos:station:USF.COMPS:EGK:1,2013-04-10T11:24:00Z,27.6010,-82.7510,-1.0,0.88,2 
COMPS,ioos:station:USF.COMPS:EGK:1,2013-04-10T11:30:00Z,27.6010,-82.7510,-1.0,1.07,2 
COMPS,ioos:station:USF.COMPS:EGK:1,2013-04-10T11:36:00Z,27.6010,-82.7510,-1.0,0.79,2 
COMPS,ioos:station:USF.COMPS:EGK:1,2013-04-10T11:42:00Z,27.6010,-82.7510,-1.0,0.74,2 
COMPS,ioos:station:USF.COMPS:EGK:1,2013-04-10T11:48:00Z,27.6010,-82.7510,-1.0,0.6,2 
COMPS,ioos:station:USF.COMPS:EGK:1,2013-04-10T11:54:00Z,27.6010,-82.7510,-1.0,0.22,2 
COMPS,ioos:station:USF.COMPS:EGK:1,2013-04-10T12:06:00Z,27.6010,-82.7510,-1.0,0.05,2 
COMPS,ioos:station:USF.COMPS:EGK:1,2013-04-10T12:12:00Z,27.6010,-82.7510,-1.0,0.61,2 
COMPS,ioos:station:USF.COMPS:EGK:1,2013-04-10T12:18:00Z,27.6010,-82.7510,-1.0,0.82,2 
COMPS,ioos:station:USF.COMPS:EGK:1,2013-04-10T12:24:00Z,27.6010,-82.7510,-1.0,0.9,2 
COMPS,ioos:station:USF.COMPS:EGK:1,2013-04-10T12:30:00Z,27.6010,-82.7510,-1.0,0.68,2 
COMPS,ioos:station:USF.COMPS:EGK:1,2013-04-10T12:36:00Z,27.6010,-82.7510,-1.0,0.54,2 
COMPS,ioos:station:USF.COMPS:EGK:1,2013-04-10T12:42:00Z,27.6010,-82.7510,-1.0,0.63,2 
COMPS,ioos:station:USF.COMPS:EGK:1,2013-04-10T12:48:00Z,27.6010,-82.7510,-1.0,0.92,2 
COMPS,ioos:station:USF.COMPS:EGK:1,2013-04-10T12:54:00Z,27.6010,-82.7510,-1.0,0.78,2 
COMPS,ioos:station:USF.COMPS:EGK:1,2013-04-10T13:00:00Z,27.6010,-82.7510,-1.0,0.8,2 
COMPS,ioos:station:USF.COMPS:EGK:1,2013-04-10T13:06:00Z,27.6010,-82.7510,-1.0,0.78,2 
COMPS,ioos:station:USF.COMPS:EGK:1,2013-04-10T13:12:00Z,27.6010,-82.7510,-1.0,0.87,2 
COMPS,ioos:station:USF.COMPS:EGK:1,2013-04-10T13:18:00Z,27.6010,-82.7510,-1.0,2.05,2 
COMPS,ioos:station:USF.COMPS:EGK:1,2013-04-10T13:24:00Z,27.6010,-82.7510,-1.0,1.34,2 
COMPS,ioos:station:USF.COMPS:EGK:1,2013-04-10T13:30:00Z,27.6010,-82.7510,-1.0,0.88,2 
COMPS,ioos:station:USF.COMPS:EGK:1,2013-04-10T13:36:00Z,27.6010,-82.7510,-1.0,0.75,2 
COMPS,ioos:station:USF.COMPS:EGK:1,2013-04-10T13:42:00Z,27.6010,-82.7510,-1.0,0.75,2 
COMPS,ioos:station:USF.COMPS:EGK:1,2013-04-10T13:48:00Z,27.6010,-82.7510,-1.0,0.89,2 
COMPS,ioos:station:USF.COMPS:EGK:1,2013-04-10T13:54:00Z,27.6010,-82.7510,-1.0,0.92,2 
COMPS,ioos:station:USF.COMPS:EGK:1,2013-04-10T14:00:00Z,27.6010,-82.7510,-1.0,0.84,2 
COMPS,ioos:station:USF.COMPS:EGK:1,2013-04-10T14:06:00Z,27.6010,-82.7510,-1.0,0.72,2 
COMPS,ioos:station:USF.COMPS:EGK:1,2013-04-10T14:12:00Z,27.6010,-82.7510,-1.0,0.81,2 
COMPS,ioos:station:USF.COMPS:EGK:1,2013-04-10T14:18:00Z,27.6010,-82.7510,-1.0,0.77,2 
COMPS,ioos:station:USF.COMPS:EGK:1,2013-04-10T14:24:00Z,27.6010,-82.7510,-1.0,0.73,2 
COMPS,ioos:station:USF.COMPS:EGK:1,2013-04-10T14:30:00Z,27.6010,-82.7510,-1.0,0.16,2 
COMPS,ioos:station:USF.COMPS:EGK:1,2013-04-10T14:36:00Z,27.6010,-82.7510,-1.0,0.11,2 
COMPS,ioos:station:USF.COMPS:EGK:1,2013-04-10T14:42:00Z,27.6010,-82.7510,-1.0,0.33,2 